Regional Weather Roundup
Issued by NWS

Home | Current Version | Previous Version | Graphics & Text | Print | Product List | Glossary Off
Versions: 1 2 3 4 5 6 7 8 9 10 11 12 13 14 15 16 17 18 19 20 21 22 23 24 25 26 27 28 29 30 31 32 33 34 35 36 37 38 39 40 41 42 43 44 45 46 47 48 49 50

000
ASUS43 KTOP 301008
RWRKS

WEATHER ROUNDUP FOR KANSAS
NATIONAL WEATHER SERVICE GOODLAND KS
500 AM CDT TUE SEP 30 2014

NOTE:  "FAIR" INDICATES FEW OR NO CLOUDS BELOW 12,000 FEET WITH NO
SIGNIFICANT WEATHER AND/OR OBSTRUCTIONS TO VISIBILITY.

KSZ001>006-013>018-027>032-041>047-301100-
NORTHWEST KANSAS

CITY           SKY/WX    TMP DP  RH WIND       PRES   REMARKS
GOODLAND       PTCLDY    49  46  90 W7        29.87S
HAYS           CLOUDY    64  55  72 S13       29.85F THUNDER
HILL CITY      CLOUDY    66  58  75 S10       29.82S
RUSSELL        CLOUDY    67  56  67 S9        29.85S
$$

KSZ061>065-074>080-084>089-301100-
SOUTHWEST KANSAS

CITY           SKY/WX    TMP DP  RH WIND       PRES   REMARKS
DODGE CITY     CLOUDY    65  55  70 S14       29.86F
ELKHART          N/A     60  55  83 S8          N/A
GARDEN CITY    CLOUDY    62  60  93 SW3       29.87S
GREAT BEND     CLOUDY    70  54  56 S17       29.85F
LIBERAL        PTCLDY    63  55  77 S7        29.88F
PRATT          CLOUDY    64  54  68 S12       29.90S
$$

KSZ066>073-081>083-090>101-301100-
SOUTHEAST KANSAS

CITY           SKY/WX    TMP DP  RH WIND       PRES   REMARKS
CHANUTE        CLEAR     61  59  93 SE7       29.93F
COFFEYVILLE    PTCLDY    59  56  89 CALM      29.93S
HUTCHINSON     PTCLDY    66  56  70 SE8       29.89F
MEDICINE LODGE   N/A     65  56  72 S8        29.89F
NEWTON         PTCLDY    63  54  72 S8        29.93S
PARSONS        PTCLDY    58  57  97 CALM      29.94S
WICHITA INTL   MOCLDY    64  57  78 S8        29.90S
WICHITA JABRA  PTCLDY    64  57  78 S8        29.91S
WICHITA MCCONL PTCLDY    66  60  80 SE8       29.91S
WINFIELD       MOCLDY    65  59  81 S9        29.92F
$$

KSZ007>012-019>026-033>040-048>060-102>105-301100-
NORTHEAST KANSAS

CITY           SKY/WX    TMP DP  RH WIND       PRES   REMARKS
CONCORDIA      PTCLDY    67  59  75 S15G21    29.86F
EMPORIA        PTCLDY    61  58  90 S8        29.92S
LAWRENCE       CLEAR     59  56  89 CALM      29.92F
MANHATTAN      CLOUDY    68  59  73 CALM      29.89S
MARYSVILLE     CLOUDY    64  59  82 SE5       29.88F
OLATHE IND     CLEAR     63  58  83 SE8       29.93F
OLATHE EXE     CLEAR     63  58  83 SE5       29.93F
SALINA         PTCLDY    67  58  72 S10       29.88S
TOPEKA BILLARD CLEAR     63  60  90 E3        29.91F
TOPEKA FORBES  CLEAR     61  57  87 E5        29.91F
$$



USA.gov is the U.S. government's official web portal to all federal, state and local government web resources and services.